Wind_Speed
6 6 6 6 6 6 7 7 7 6 6 7 7 7 8 8 8 8 9 9 9 9 9 9 9 9 9 9 9 9 10 10 10 11 11 11 11 11 10 10 11 11 12
8 8 7 8 7 7 8 8 8 7 7 7 8 8 8 9 9 9 9 10 9 10 10 10 10 10 10 10 10 10 10 11 11 11 12 12 12 12 12 11 11 12 12
8 9 9 8 8 8 8 8 9 9 9 9 9 9 9 9 10 10 10 10 11 11 11 11 12 12 12 12 11 11 11 11 11 11 12 12 13 13 13 13 12 13 12
9 9 9 9 9 9 9 9 9 9 10 10 10 10 10 10 11 11 11 11 12 12 13 13 13 13 13 13 13 12 12 12 13 13 12 13 14 14 14 14 14 14 14
9 9 9 9 10 10 10 10 10 11 11 11 10 10 11 11 12 12 12 12 13 13 13 14 14 14 14 14 14 13 13 13 13 13 13 13 14 14 14 15 14 15 15
9 9 9 10 11 11 11 12 12 12 11 11 12 12 12 12 13 13 13 13 14 14 14 14 14 15 15 15 14 14 14 14 14 14 14 15 15 15 16 16 16 16 15
10 10 10 11 11 11 12 12 13 13 13 13 13 13 13 13 13 13 14 14 15 15 15 15 15 15 15 16 16 15 15 15 15 15 15 16 16 16 16 17 17 17 17
11 11 11 12 12 12 12 13 13 14 14 14 14 15 15 14 15 15 15 15 15 15 16 16 16 16 16 16 16 16 16 17 17 16 16 16 17 17 18 18 18 18 18
12 12 13 13 14 14 14 14 14 15 15 15 16 16 16 16 16 17 17 17 16 16 16 16 16 16 17 17 17 17 17 17 18 18 18 18 18 19 18 19 19 19 19
13 14 15 15 16 16 16 16 16 16 17 17 17 18 18 17 17 18 18 17 17 17 16 16 17 17 18 18 18 18 18 19 19 19 19 19 19 19 19 20 20 20 20
14 15 15 16 17 18 18 18 18 19 19 19 19 20 20 19 19 19 18 18 17 17 16 17 17 18 18 19 19 19 19 19 20 20 20 20 20 20 20 20 21 21 21
16 17 17 18 18 19 20 20 20 21 21 21 21 21 21 20 21 20 19 19 19 18 18 17 18 19 19 20 20 20 20 20 21 21 21 21 21 21 21 21 21 22 22
18 19 20 19 20 20 21 21 21 21 22 22 22 22 22 22 21 21 21 20 20 20 20 19 19 20 20 21 21 21 21 21 21 21 22 23 22 22 22 22 22 22 23
20 20 21 22 21 22 22 22 22 22 22 23 23 23 23 23 22 22 22 22 22 22 22 21 21 21 21 22 22 22 21 21 21 22 22 23 23 24 24 23 23 23 24
22 22 22 23 23 23 23 22 23 23 23 23 24 24 24 24 24 24 24 24 23 23 22 22 22 22 22 22 22 22 22 22 22 23 23 23 24 25 25 24 25 25 25
22 22 23 23 24 23 23 23 24 24 24 24 24 25 25 25 24 24 24 24 23 23 23 23 23 22 23 23 23 23 23 24 24 24 24 24 25 25 25 26 26 27 27
24 24 24 24 24 24 24 24 24 24 24 24 25 26 26 25 25 24 24 25 24 23 23 23 23 23 24 24 24 24 24 25 25 25 24 25 25 25 25 26 27 28 28
26 25 25 24 24 24 24 25 25 24 24 24 24 25 25 25 25 25 25 25 24 24 23 23 24 24 24 25 25 24 25 25 26 26 25 26 26 26 26 26 27 28 28
26 26 26 25 24 24 24 24 24 24 25 24 24 24 24 25 25 25 25 25 25 24 24 24 24 25 25 25 25 26 26 26 26 27 27 27 27 27 27 28 28 29 29
26 26 26 25 24 24 24 23 23 24 24 24 24 24 24 24 24 25 25 25 25 25 25 25 25 25 26 26 27 26 27 27 27 27 27 28 29 29 29 29 29 30 30
26 26 25 25 24 24 24 24 23 23 24 24 24 24 25 25 25 25 25 25 25 25 25 25 25 25 26 26 27 27 27 27 27 28 28 29 29 30 30 30 31 31 31
26 25 25 25 25 25 25 25 25 25 24 24 24 25 25 25 25 25 25 25 26 25 25 25 25 26 27 27 27 28 28 28 28 29 30 30 30 31 31 31 32 32 32
27 27 26 26 26 26 26 26 26 26 25 25 25 26 26 25 26 26 26 26 27 27 27 26 26 27 27 27 27 27 28 29 29 30 30 30 31 31 31 32 32 32 31
28 28 28 28 28 28 28 28 28 27 27 26 27 27 27 26 27 27 28 28 28 28 28 27 26 27 27 27 28 28 28 29 30 30 30 30 31 31 32 32 32 32 31
30 30 30 29 29 29 30 30 29 29 28 28 28 28 28 27 28 28 28 28 29 29 29 28 28 27 27 27 28 28 29 29 30 30 30 30 30 31 31 31 31 32 32
31 31 31 31 30 29 29 29 29 30 30 30 30 29 29 29 30 30 29 29 29 29 29 29 29 29 28 29 28 29 29 29 30 30 30 31 31 31 31 31 31 31 31
Wind_Direction
277 278 282 284 277 271 268 269 269 271 274 275 276 274 273 273 273 272 273 273 275 276 276 275 272 270 270 268 268 265 262 258 256 256 257 258 255 256 259 260 261 262 263
272 278 282 281 275 266 264 266 264 268 271 274 274 274 274 275 273 273 272 274 276 275 274 274 271 271 272 270 268 265 265 259 257 255 255 256 255 260 261 262 263 263 266
271 272 277 277 273 264 262 264 263 264 268 269 270 270 271 272 272 272 272 273 274 274 274 274 272 271 270 269 268 267 267 263 260 256 255 255 258 261 261 262 264 264 265
276 275 277 275 272 268 263 262 263 265 267 267 268 269 270 272 273 274 274 275 275 274 274 272 271 268 268 269 268 268 266 263 260 258 258 261 262 263 262 263 265 267 267
276 275 276 276 276 275 267 264 264 266 264 266 268 269 271 273 273 273 273 274 275 275 274 273 272 270 270 270 270 268 266 265 262 260 260 262 263 263 264 267 269 268 269
274 276 277 278 280 277 271 266 266 264 264 270 273 272 272 273 273 273 272 273 274 273 272 272 272 271 269 269 269 269 266 265 263 263 263 264 265 265 264 267 268 269 270
275 275 275 277 279 277 273 269 268 265 267 269 272 275 275 273 273 274 274 275 274 273 272 272 272 270 269 268 267 268 267 265 264 264 265 266 267 267 266 267 268 269 271
275 274 275 277 278 278 277 275 271 267 269 270 270 272 274 275 275 275 276 276 276 274 273 273 272 271 270 269 268 268 267 266 265 265 267 267 268 268 269 270 270 269 270
277 276 276 276 278 279 278 276 273 270 270 270 271 272 274 274 275 274 275 277 276 275 274 273 272 271 271 271 270 270 267 266 265 266 267 267 268 270 270 270 270 269 270
276 276 277 276 276 277 277 276 274 272 271 271 271 272 272 274 274 274 274 275 275 273 271 271 272 272 272 272 272 272 270 267 267 266 267 269 269 269 270 271 271 270 270
278 277 275 276 276 277 278 276 274 273 271 271 272 272 272 274 276 277 276 275 274 273 273 272 272 272 271 272 272 272 272 269 268 268 268 269 269 268 270 272 271 270 270
277 277 276 276 277 277 277 276 274 272 272 272 271 272 271 272 275 276 275 274 273 273 274 274 273 273 273 272 272 272 272 271 270 269 269 267 268 268 269 271 272 272 272
278 277 276 276 277 277 277 276 275 274 273 272 271 272 273 272 273 275 273 271 270 272 272 273 273 273 273 273 272 271 272 273 272 271 271 269 270 269 270 270 271 272 272
278 277 277 278 278 278 277 277 277 276 273 271 271 270 272 273 274 273 272 271 270 271 272 272 273 273 272 272 271 271 271 273 273 272 272 271 271 271 272 272 272 272 272
279 278 278 278 279 279 278 276 276 276 274 272 270 270 271 272 273 271 271 271 271 270 271 272 272 273 272 271 270 270 271 273 273 272 272 271 271 271 272 272 272 272 272
279 279 279 279 279 279 277 276 275 274 274 273 272 270 270 271 272 272 271 271 270 270 270 271 272 271 272 271 271 271 271 272 272 272 273 273 273 273 273 274 274 273 273
278 280 282 281 279 279 278 277 276 274 274 275 275 272 270 269 270 269 270 271 271 272 270 269 271 270 271 272 272 271 271 272 271 271 273 273 273 273 274 275 275 275 274
278 280 281 280 278 277 277 277 276 274 274 275 276 274 271 269 269 269 268 270 271 272 271 270 269 269 270 271 271 271 272 273 272 271 272 272 274 275 274 274 275 275 274
277 278 279 278 276 275 276 277 276 274 274 274 275 274 273 272 270 269 268 270 271 273 272 272 270 269 270 271 272 272 272 272 272 273 272 273 275 276 276 276 276 275 273
276 275 277 277 276 276 277 277 275 274 273 273 274 274 274 273 270 269 269 270 271 271 271 272 272 272 272 272 272 272 271 272 273 273 273 275 276 276 277 278 277 276 274
274 273 274 275 276 276 277 277 276 275 274 273 272 272 273 272 269 268 269 272 272 271 272 272 273 273 273 274 274 273 273 272 272 273 275 276 276 277 279 280 279 277 275
274 273 273 274 275 275 276 276 276 276 275 273 272 272 272 271 269 268 269 271 272 272 274 273 273 274 273 273 274 274 273 273 273 273 275 276 277 278 279 280 279 277 276
274 274 274 274 274 274 275 275 275 275 276 275 274 275 273 271 270 269 268 269 271 271 273 273 274 275 273 274 274 274 274 274 275 276 276 277 277 277 279 280 279 276 275
273 272 273 274 275 274 274 273 274 274 274 275 276 277 274 271 271 270 269 270 271 272 272 273 275 275 274 275 274 274 273 274 275 276 277 277 277 278 279 280 278 276 275
272 273 273 273 274 274 273 272 271 271 272 273 275 276 275 273 272 272 271 271 271 272 272 273 275 276 275 275 276 275 274 276 276 276 278 278 278 280 280 280 279 277 276
272 272 273 274 273 272 272 271 270 271 271 272 274 274 274 273 271 271 272 272 272 272 273 273 275 277 276 275 275 275 274 275 276 277 279 281 281 281 282 281 280 278 276
Height
5845 5845 5845 5845 5845 5845 5845 5845 5845 5845 5845 5845 5844 5844 5844 5844 5843 5843 5843 5842 5842 5842 5842 5841 5841 5841 5841 5841 5841 5841 5841 5840 5841 5841 5841 5841 5841 5841 5841 5842 5842 5842 5842
5843 5843 5843 5843 5843 5843 5843 5843 5843 5842 5842 5842 5842 5842 5842 5841 5841 5841 5840 5840 5839 5839 5839 5838 5838 5838 5838 5838 5838 5838 5838 5838 5838 5838 5838 5838 5839 5838 5838 5839 5839 5839 5839
5841 5841 5841 5840 5840 5840 5840 5840 5840 5840 5840 5840 5839 5839 5839 5839 5839 5838 5837 5837 5836 5836 5836 5836 5835 5835 5835 5835 5835 5835 5834 5834 5834 5835 5835 5835 5835 5835 5835 5835 5835 5835 5835
5838 5838 5838 5838 5837 5837 5837 5837 5837 5837 5837 5837 5836 5836 5836 5836 5835 5835 5835 5834 5833 5833 5832 5832 5832 5832 5832 5831 5831 5831 5831 5831 5831 5831 5831 5832 5832 5832 5832 5832 5832 5831 5831
5835 5835 5835 5834 5834 5834 5834 5834 5834 5834 5834 5833 5833 5833 5833 5833 5832 5832 5831 5831 5830 5829 5829 5828 5828 5828 5828 5827 5827 5827 5827 5827 5827 5827 5828 5828 5828 5828 5828 5828 5828 5828 5828
5832 5832 5832 5831 5831 5831 5830 5830 5830 5830 5830 5830 5830 5829 5829 5829 5829 5828 5827 5827 5826 5825 5825 5824 5824 5823 5823 5823 5823 5823 5823 5823 5824 5824 5824 5824 5824 5824 5824 5824 5824 5824 5824
5829 5829 5828 5828 5828 5827 5827 5826 5826 5826 5826 5826 5826 5825 5825 5825 5824 5824 5823 5822 5822 5821 5820 5820 5819 5819 5819 5819 5819 5819 5819 5819 5819 5819 5820 5820 5819 5819 5820 5820 5819 5819 5819
5826 5825 5825 5825 5825 5824 5823 5823 5823 5823 5823 5822 5822 5821 5820 5820 5820 5819 5818 5818 5817 5816 5816 5815 5815 5814 5814 5814 5814 5814 5814 5814 5814 5815 5815 5815 5815 5815 5815 5815 5815 5815 5814
5822 5821 5821 5821 5821 5820 5819 5819 5819 5819 5818 5818 5818 5817 5816 5815 5815 5814 5813 5812 5812 5811 5810 5810 5810 5809 5809 5809 5809 5809 5809 5809 5809 5810 5810 5810 5810 5810 5810 5810 5810 5810 5809
5818 5817 5817 5816 5816 5815 5815 5814 5814 5814 5814 5813 5813 5812 5811 5810 5810 5809 5808 5807 5806 5806 5805 5805 5805 5804 5804 5804 5804 5804 5804 5804 5804 5804 5804 5804 5804 5804 5804 5804 5804 5804 5804
5813 5813 5812 5812 5811 5810 5810 5809 5809 5808 5808 5808 5807 5807 5806 5805 5804 5803 5802 5802 5801 5800 5800 5799 5799 5799 5799 5799 5798 5798 5798 5798 5799 5799 5799 5799 5799 5799 5798 5798 5798 5798 5798
5808 5807 5807 5806 5806 5805 5805 5804 5803 5803 5802 5801 5801 5801 5800 5799 5798 5797 5796 5796 5795 5795 5794 5794 5793 5793 5793 5793 5793 5793 5793 5793 5793 5793 5793 5793 5793 5793 5792 5792 5792 5792 5791
5802 5801 5801 5800 5800 5799 5799 5798 5797 5797 5796 5795 5795 5794 5794 5793 5792 5791 5790 5789 5789 5789 5788 5788 5788 5787 5787 5787 5787 5787 5787 5786 5786 5786 5786 5786 5786 5786 5786 5786 5785 5785 5785
5796 5795 5794 5794 5793 5793 5792 5791 5791 5790 5789 5789 5788 5787 5787 5786 5785 5784 5783 5783 5783 5782 5782 5782 5781 5781 5781 5780 5780 5780 5780 5780 5780 5780 5780 5780 5780 5780 5779 5779 5779 5779 5778
5790 5789 5788 5787 5786 5786 5785 5784 5784 5783 5782 5781 5781 5780 5779 5779 5778 5777 5777 5776 5775 5775 5775 5775 5774 5774 5774 5774 5774 5774 5774 5774 5774 5773 5773 5773 5773 5773 5772 5772 5772 5771 5771
5783 5782 5781 5780 5779 5779 5778 5777 5776 5775 5774 5774 5773 5773 5772 5772 5771 5770 5770 5769 5768 5768 5768 5767 5767 5767 5767 5767 5767 5767 5767 5767 5767 5766 5766 5766 5766 5765 5765 5764 5764 5764 5763
5776 5775 5774 5773 5772 5771 5770 5770 5769 5768 5767 5766 5765 5765 5764 5764 5763 5763 5762 5761 5761 5761 5760 5760 5760 5761 5761 5760 5760 5760 5760 5760 5759 5759 5759 5759 5758 5758 5757 5757 5756 5755 5754
5768 5767 5766 5765 5764 5763 5763 5762 5761 5760 5759 5758 5757 5757 5756 5756 5756 5755 5755 5754 5754 5754 5753 5753 5753 5753 5753 5753 5753 5753 5753 5752 5752 5752 5751 5751 5751 5750 5749 5749 5748 5747 5746
5761 5759 5758 5757 5757 5756 5755 5754 5753 5753 5752 5751 5750 5749 5749 5749 5748 5748 5748 5747 5747 5746 5746 5746 5746 5746 5746 5746 5746 5746 5745 5745 5744 5744 5744 5743 5743 5742 5741 5740 5740 5739 5737
5752 5751 5750 5750 5749 5748 5747 5746 5746 5745 5744 5743 5743 5742 5742 5741 5741 5740 5740 5740 5739 5739 5739 5738 5738 5738 5738 5738 5738 5738 5737 5737 5736 5736 5735 5735 5734 5733 5732 5731 5730 5729 5728
5744 5743 5743 5742 5741 5740 5739 5739 5738 5737 5737 5736 5735 5735 5734 5733 5733 5733 5732 5732 5732 5731 5731 5730 5730 5730 5730 5730 5729 5729 5729 5728 5728 5727 5727 5726 5725 5724 5723 5722 5720 5719 5718
5736 5735 5734 5734 5733 5732 5732 5731 5731 5730 5729 5728 5728 5727 5726 5726 5725 5725 5725 5724 5724 5724 5723 5722 5722 5722 5721 5721 5721 5720 5720 5720 5719 5719 5718 5717 5716 5715 5713 5712 5710 5709 5707
5728 5727 5726 5726 5725 5724 5724 5723 5723 5722 5721 5721 5720 5719 5718 5718 5717 5717 5717 5716 5716 5716 5715 5715 5714 5713 5712 5712 5712 5711 5711 5710 5710 5709 5708 5707 5706 5705 5703 5702 5700 5698 5697
5719 5718 5718 5717 5717 5716 5715 5715 5714 5713 5713 5713 5712 5711 5710 5710 5709 5709 5709 5708 5708 5708 5707 5706 5706 5705 5704 5703 5703 5702 5702 5701 5700 5700 5699 5698 5696 5695 5693 5692 5690 5688 5687
5710 5710 5709 5708 5708 5707 5706 5706 5705 5705 5704 5704 5703 5703 5702 5701 5701 5700 5700 5700 5700 5699 5699 5698 5697 5697 5696 5695 5694 5693 5693 5692 5691 5690 5689 5688 5686 5685 5684 5682 5680 5679 5677
5700 5700 5699 5699 5699 5698 5697 5697 5696 5696 5695 5695 5694 5694 5693 5692 5692 5692 5691 5691 5691 5690 5689 5689 5688 5687 5687 5686 5685 5684 5683 5682 5682 5681 5679 5678 5677 5675 5674 5672 5670 5669 5668